Location: Unspecified
(0.0000°N, 0.0000°E)
Time: 18:23:31
(UTC+00:00)

COSMOS 2401 - Pass Details

Date: 04 March 2021
Orbit: 1467 x 1500 km, 82.5° (Epoch: 11 April)

Event Time Altitude Azimuth Distance (km) Brightness Sun altitude
Rises 18:37:03 0° 165° (SSE) 4,578 9.9 -6.3°
Reaches altitude 10° 18:40:14 10° 157° (SSE) 3,599 9.3 -7.1°
Maximum altitude 18:47:58 37° 93° (E) 2,141 7.8 -9.0°
Drops below altitude 10° 18:55:40 10° 29° (NNE) 3,604 9.1 -11.0°
Sets 18:58:48 0° 22° (NNE) 4,586 9.7 -11.7°
